DODECAPOLE 2 DEB, 41734

Orbit data source: Space-Track

DODECAPOLE 2 DEB, 41734 is space debris in LEO originally from a launch on Fri, 13 Aug 1965 UTC launched from the Air Force Western Test Range (AFWTR). Debris objects in space refer to the collection of defunct objects orbiting the Earth. Examples of debris include non-operational satellites, rocket bodies, and fragments generated from explosions, collisions, or faulty payload assembly.

Loading next visibility...
Identifier
41734, 1965-065U
Orbit
LEO
Country
Flag of USUS
Related business
Manufacturer
Unknown
Mission
Spacecraft
Bus & Motor
Unknown
Mass
Unknown
Launch date (UTC)
1965-08-13 (61 years ago)
Launch vehicle
Unknown
Launch site
Air Force Western Test Range (AFWTR)
Object type
Payload
Rocket body
Debris
Shape & HBR
Unknown shape, 0.1 m
Radar Cross Section
Medium (>0.1 m² and <1 m²)

Expand to show TLE details & history
Last TLE update: 8 hours ago

TLE from 8 hours ago
0 DODECAPOLE 2 DEB
1 41734U 65065U   26166.09241885  .00005241  00000-0  23656-2 0  9995
2 41734  90.0459  22.7584 0032406 113.3437 247.1170 14.21767211536023
Epoch: 2026-06-15T02:13Z
TLE epoch observation values (Epoch: 2026-06-15T02:13:04.988Z)
Latitude
0.00004°
Longitude
86.10385°
Altitude
831.576 km
Speed
7.432 km/s
True Right ascension
01h 31m 02s
True Declination
0° 00' 00"
Sunlit
Object was in daylight at epoch
Visualization orbit readout
Latitude
Unknown
Longitude
Unknown
Altitude
Unknown
Speed
Unknown
Apparent Right ascension
Unknown
Apparent Declination
Unknown
Sunlit
N/A
Visualization observer readout
Local Sidereal Time
20:33:30
Azimuth
Unknown
Elevation
Unknown
Doppler factor
Unknown
Orbital elements
Apogee altitude
839.643 km
Perigee altitude
793.014 km
Semi-major axis
7,194.465 km
Eccentricity
0.00324
Inclination
90.0459°
RAAN
22.7584°
Arg. of periapsis
113.3437°
True anomaly
246.77542°
Mean anomaly
247.117°
Eccentric anomaly
246.94616°
Mean motion
3.55668 °/min
Orbital period
101.22 mins
BSTAR
0.0023656
Loading maneuver chart data...
Computing Atmospheric mass density...
Loading historical data...
Loading historical data...
Loading historical data...
Loading historical data...
Loading historical data...
Loading historical data...
Loading historical data...

Documentation

Showing up to 5 results
|